[[{"header":{"parameterUnit":"m.s-1","parameterCategory":1,"la1":30.2991,"la2":30.254,"lo1":-89.0895,"lo2":-89.0444,"dy":0.0017,"dx":0.0017,"nx":28,"ny":28,"refTime":"2024-12-31T09:00:00:Z","depth":0,"parameterNumber":2,"parameterNumberName":"U-component_of_WINDS"},"data":[0,0,0,0,0,0,0,0,0,0,0,0,0,0,0,0,0,0,0,0,0,0,0,0,0,0,0,0,0,0,0,0,0,0,0,0,0,0,0,0,0,0,0,0,0,0,0,0,0,0,0,0,0,0,0,0,0,0,1.1299,1.13,0,1.1467,1.1469,1.1471,1.1496,1.1494,1.1493,1.1491,1.1668,1.1674,1.168,0,0,0,0,0,0,0,0,0,0,0,0,0,1.1,1.1006,1.1298,1.13,1.1303,1.1467,1.1469,1.1472,1.1496,1.1494,1.1492,1.1491,1.1666,1.1673,1.168,0,0,0,0,0,0,0,0,0,0,0,0,0,1.1146,1.1007,1.1298,1.1334,1.1339,1.1467,1.1469,1.1472,1.1496,1.1494,1.1492,1.149,1.1663,1.1672,1.1681,1.1785,0,0,1.171,1.1714,0,0,0,0,0,0,0,0,1.1137,1.1157,1.1327,1.1332,1.1338,1.1458,1.1429,1.1577,1.1497,1.1437,1.1491,1.1488,1.16,1.1614,1.1651,1.1793,1.1801,1.171,1.1716,1.172,1.1723,0,0,0,0,0,0,0,1.1127,1.1149,1.1365,1.1329,1.1336,1.1344,1.1362,1.1457,1.153,1.1442,1.1444,1.1464,1.1603,1.1642,1.1656,1.1803,1.171,1.1718,1.1724,1.1728,1.204,1.2042,0,0,0,0,0,0,1.111,1.1141,1.136,1.137,1.123,1.1351,1.1371,1.1422,1.1529,1.1543,1.1465,1.1464,1.1628,1.1645,1.1662,1.1791,1.172,1.1729,1.1734,1.2037,1.204,1.2043,0,0,0,0,0,0,1.1104,1.1129,1.1353,1.1256,1.1285,1.1358,1.1415,1.1426,1.1466,1.1546,1.156,1.1492,1.1627,1.1649,1.1754,1.1797,1.1733,1.1741,1.2034,1.2038,1.2042,1.2049,0,0,0,0,0,0,1.1095,1.1127,1.1166,1.1257,1.129,1.1442,1.1418,1.1431,1.1482,1.1481,1.1575,1.1589,1.1627,1.174,1.1763,1.1809,1.1748,1.203,1.2035,1.204,1.2045,1.2053,1.2059,0,0,0,0,0,1.1084,1.1162,1.1168,1.1194,1.1341,1.1444,1.1463,1.1504,1.1485,1.1526,1.1577,1.1586,1.1788,1.1751,1.1777,1.1826,1.2028,1.2034,1.204,1.2042,1.2051,1.2059,0,0,0,0,0,0,1.1076,1.1175,1.1182,1.1292,1.1359,1.1448,1.1501,1.1513,1.1588,1.1585,1.1633,1.1654,1.1757,1.1802,1.1758,1.1932,1.1907,1.1918,1.1899,1.1909,1.1916,1.1903,1.1756,0,0,0,0,0,1.1087,1.1161,1.1244,1.1332,1.1366,1.1427,1.1474,1.1499,1.1571,1.16,1.166,1.173,1.181,1.1862,1.1939,1.2051,1.2073,1.2098,1.2105,1.211,1.212,1.2184,1.2196,1.2063,1.2063,1.2063,0,0,1.111,1.1173,1.1218,1.1332,1.1388,1.1465,1.1451,1.1533,1.1591,1.1613,1.1716,1.1762,1.1844,1.1953,1.2004,1.1994,1.2162,1.2118,1.2122,1.2129,1.2191,1.2204,1.2215,1.2068,1.2067,1.2066,0,0,1.1192,1.1247,1.1327,1.1382,1.1466,1.1506,1.1525,1.1612,1.1643,1.1746,1.1765,1.1835,1.1971,1.2029,1.2076,1.218,1.2191,1.2204,1.2241,1.2302,1.2313,1.2322,1.236,1.2373,1.2213,1.2213,1.2213,0,1.1211,1.1327,1.1367,1.1449,1.1499,1.1521,1.1603,1.1655,1.176,1.1795,1.1781,1.1952,1.2009,1.2132,1.2157,1.2195,1.2219,1.2194,1.2308,1.2318,1.2327,1.2364,1.2378,1.2214,1.2214,1.2214,1.2214,0,1.1347,1.1427,1.1482,1.1581,1.1637,1.1719,1.1772,1.1825,1.1845,1.1887,1.1993,1.2061,1.2154,1.2185,1.2206,1.2311,1.2302,1.2297,1.2273,1.234,1.2376,1.239,1.2216,1.2215,1.2215,1.2215,0,0,1.143,1.1549,1.1569,1.1615,1.1708,1.1771,1.1853,1.1942,1.1987,1.2058,1.213,1.2244,1.224,1.2294,1.2321,1.2375,1.2454,1.2364,1.2367,1.2379,1.2575,1.2579,1.2594,1.2461,1.2463,1.2466,1.2568,0,1.1524,1.167,1.1709,1.1834,1.1909,1.1931,1.2003,1.2068,1.2109,1.218,1.2226,1.2306,1.2295,1.2327,1.2381,1.2432,1.2494,1.2425,1.2529,1.2532,1.2509,1.2613,1.2617,1.2711,1.2582,1.2585,1.2587,0,1.1653,1.1726,1.1858,1.1941,1.1974,1.2038,1.2123,1.219,1.2265,1.2291,1.235,1.2373,1.2461,1.2431,1.2553,1.2506,1.2551,1.2582,1.2587,1.2599,1.2564,1.2629,1.2742,1.2756,1.2609,1.2607,1.2605,0,1.1701,1.1832,1.1929,1.1967,1.2066,1.2111,1.2155,1.2227,1.2278,1.2353,1.2386,1.247,1.2517,1.2582,1.2627,1.26,1.2746,1.2719,1.2772,1.2771,1.2803,1.28,1.2925,1.2829,1.2829,1.2829,1.2828,0,1.1803,1.1883,1.1952,1.2011,1.2102,1.2146,1.2235,1.2279,1.2344,1.2413,1.2437,1.2502,1.2557,1.2629,1.2665,1.2762,1.2782,1.2807,1.2816,1.2806,1.2803,1.2837,1.2832,1.2832,1.2832,1.2831,1.283,0,1.1873,1.1922,1.2028,1.2113,1.2136,1.22,1.2273,1.2332,1.2374,1.2461,1.2484,1.255,1.2637,1.2688,1.2797,1.2822,1.2929,1.2934,1.2903,1.2908,1.2957,1.2952,1.3109,1.3133,1.302,1.3021,1.3022,0,1.1935,1.1997,1.2088,1.2136,1.218,1.2256,1.2308,1.2353,1.2407,1.2496,1.2545,1.2633,1.2705,1.2843,1.2901,1.2985,1.2994,1.3043,1.3007,1.2995,1.2996,1.2992,1.2999,1.3049,1.305,1.3051,1.3052,0,1.204,1.2061,1.2134,1.2216,1.2277,1.2344,1.2411,1.2449,1.2506,1.2565,1.2653,1.2709,1.282,1.2908,1.2996,1.3043,1.3058,1.3063,1.3079,1.307,1.305,1.3063,1.2921,1.3059,1.3058,1.3058,1.3058,1.3057,1.2109,1.2165,1.2238,1.2319,1.2374,1.2436,1.2495,1.2544,1.2618,1.2711,1.2734,1.2827,1.2901,1.3021,1.307,1.3144,1.3136,1.316,1.3166,1.3172,1.3174,1.3037,1.316,1.316,1.316,1.316,1.3159,0,1.2216,1.2264,1.2338,1.243,1.2494,1.25,1.2575,1.2628,1.2709,1.2776,1.2847,1.2948,1.3033,1.3098,1.3185,1.3232,1.3241,1.3253,1.3251,1.3261,1.3175,1.3152,1.3244,1.3244,1.3244,1.3244,1.3244,1.3244,1.2279,1.2375,1.2405,1.2529,1.2577,1.2667,1.2709,1.2766,1.282,1.2932,1.3002,1.3043,1.311,1.3201,1.328,1.3297,1.3328,1.334,1.3358,1.3276,1.3267,1.3259,1.3238,1.3346,1.3346,1.3438,1.3439,1.344]},{"header":{"parameterUnit":"m.s-1","parameterCategory":1,"la1":30.2991,"la2":30.254,"lo1":-89.0895,"lo2":-89.0444,"dy":0.0017,"dx":0.0017,"nx":28,"ny":28,"refTime":"2024-12-31T09:00:00:Z","depth":0,"parameterNumber":3,"parameterNumberName":"V-component_of_WINDS"},"data":[0,0,0,0,0,0,0,0,0,0,0,0,0,0,0,0,0,0,0,0,0,0,0,0,0,0,0,0,0,0,0,0,0,0,0,0,0,0,0,0,0,0,0,0,0,0,0,0,0,0,0,0,0,0,0,0,0,0,2.3792,2.3794,0,2.3966,2.3968,2.397,2.4014,2.4013,2.4012,2.4011,2.4185,2.419,2.4196,0,0,0,0,0,0,0,0,0,0,0,0,0,2.3491,2.3496,2.3791,2.3794,2.3796,2.3966,2.3968,2.3971,2.4014,2.4013,2.4011,2.401,2.4183,2.419,2.4196,0,0,0,0,0,0,0,0,0,0,0,0,0,2.3639,2.3498,2.3791,2.3838,2.3844,2.3965,2.3968,2.3971,2.4014,2.4013,2.4011,2.401,2.4181,2.4189,2.4197,2.4283,0,0,2.4223,2.4227,0,0,0,0,0,0,0,0,2.363,2.365,2.3829,2.3835,2.3842,2.3967,2.3926,2.4076,2.4015,2.395,2.4011,2.4009,2.4113,2.4127,2.4163,2.4291,2.4298,2.4224,2.4229,2.4233,2.4235,0,0,0,0,0,0,0,2.362,2.3642,2.386,2.3832,2.384,2.3849,2.3868,2.3955,2.4038,2.3955,2.3959,2.3979,2.4116,2.4155,2.4168,2.4301,2.4224,2.4231,2.4237,2.424,2.4507,2.4509,0,0,0,0,0,0,2.3602,2.3634,2.3855,2.3866,2.373,2.3856,2.3877,2.3928,2.4038,2.4053,2.398,2.398,2.4141,2.4158,2.4174,2.4282,2.4233,2.4241,2.4246,2.4505,2.4507,2.4509,0,0,0,0,0,0,2.3596,2.3622,2.3848,2.3751,2.378,2.3863,2.392,2.3933,2.3972,2.4057,2.4071,2.4005,2.4141,2.4162,2.4256,2.4289,2.4245,2.4252,2.4503,2.4506,2.4508,2.4498,0,0,0,0,0,0,2.3587,2.3619,2.3654,2.3751,2.3785,2.3928,2.3922,2.3937,2.3987,2.3988,2.4084,2.4098,2.4141,2.4243,2.4264,2.43,2.4259,2.45,2.4504,2.4507,2.4496,2.45,2.4504,0,0,0,0,0,2.3576,2.3643,2.3655,2.3682,2.3831,2.393,2.3949,2.3999,2.3989,2.4024,2.4078,2.4095,2.4281,2.4252,2.4276,2.4315,2.4498,2.4503,2.4507,2.4494,2.4499,2.4504,0,0,0,0,0,0,2.3546,2.3657,2.3672,2.3772,2.3842,2.3937,2.3983,2.4004,2.4076,2.4075,2.4132,2.4153,2.4243,2.4288,2.4254,2.4403,2.4389,2.4399,2.4371,2.4377,2.4381,2.4369,2.4266,0,0,0,0,0,2.3551,2.3624,2.3716,2.3796,2.383,2.39,2.3945,2.3978,2.4051,2.4081,2.4142,2.4211,2.4286,2.4333,2.4406,2.4502,2.4523,2.454,2.4544,2.4547,2.4555,2.4608,2.4617,2.4524,2.4524,2.4524,0,0,2.3562,2.3632,2.3674,2.3792,2.3849,2.3922,2.3925,2.4002,2.4056,2.4092,2.4185,2.4232,2.4313,2.4408,2.4453,2.4448,2.4585,2.4552,2.4554,2.4561,2.4614,2.4623,2.463,2.4527,2.4527,2.4526,0,0,2.3621,2.3681,2.3754,2.3812,2.3899,2.3945,2.3962,2.4055,2.4089,2.4183,2.4211,2.4275,2.4402,2.4458,2.4504,2.4582,2.4599,2.4603,2.4626,2.4677,2.4685,2.4691,2.472,2.4729,2.4611,2.4611,2.4611,0,2.3624,2.3737,2.3789,2.3865,2.3916,2.3952,2.4026,2.4078,2.4184,2.4218,2.4211,2.4371,2.4428,2.4537,2.4556,2.4591,2.4612,2.4594,2.468,2.4687,2.4694,2.4722,2.4732,2.4611,2.4611,2.4611,2.4611,0,2.3736,2.3813,2.3862,2.3965,2.4021,2.4095,2.4157,2.4207,2.4233,2.428,2.4374,2.4444,2.4531,2.4559,2.4585,2.4671,2.4666,2.4669,2.4656,2.4702,2.4729,2.474,2.4611,2.4611,2.4611,2.4611,0,0,2.3783,2.3913,2.393,2.3977,2.4076,2.4136,2.4211,2.4298,2.4339,2.441,2.4475,2.458,2.4583,2.4635,2.4667,2.4712,2.477,2.471,2.4712,2.4719,2.4869,2.4868,2.4879,2.4782,2.4784,2.4786,2.4863,0,2.3854,2.3993,2.4041,2.4154,2.4226,2.426,2.4326,2.4392,2.4436,2.4503,2.4551,2.4625,2.4623,2.4655,2.4701,2.4753,2.4801,2.4748,2.4841,2.4844,2.4822,2.4893,2.4892,2.4962,2.4873,2.4875,2.4877,0,2.3957,2.4031,2.4152,2.4241,2.4273,2.4331,2.4415,2.4478,2.4553,2.4582,2.4639,2.4668,2.4746,2.4727,2.4836,2.4798,2.4839,2.487,2.4874,2.4886,2.4864,2.4908,2.4985,2.4996,2.4894,2.4892,2.4891,0,2.398,2.411,2.4199,2.4238,2.4344,2.4384,2.4429,2.4503,2.4552,2.4624,2.4656,2.4735,2.4779,2.4838,2.4888,2.4869,2.4991,2.4977,2.5017,2.5016,2.5043,2.5041,2.5129,2.5066,2.5066,2.5066,2.5065,0,2.4057,2.4129,2.4211,2.4266,2.4348,2.4402,2.4481,2.4528,2.4593,2.4656,2.4689,2.4748,2.4809,2.4874,2.4913,2.4997,2.5015,2.504,2.505,2.5039,2.5036,2.5067,2.5064,2.5068,2.5068,2.5067,2.5067,0,2.4097,2.4155,2.4255,2.4347,2.4371,2.4428,2.4505,2.4559,2.4604,2.4684,2.4706,2.4776,2.4855,2.491,2.5011,2.5037,2.5127,2.5136,2.5103,2.5108,2.5146,2.5142,2.5258,2.5276,2.52,2.5201,2.5201,0,2.4143,2.42,2.4298,2.4344,2.439,2.4463,2.4513,2.4567,2.4618,2.4707,2.475,2.4831,2.49,2.5024,2.5083,2.5161,2.5172,2.5207,2.5183,2.517,2.5173,2.517,2.5176,2.5211,2.5212,2.5212,2.5213,0,2.4219,2.4244,2.4317,2.4399,2.4458,2.4525,2.4592,2.4627,2.4692,2.4746,2.4829,2.4882,2.4985,2.5066,2.5149,2.5193,2.5214,2.5219,2.5233,2.5223,2.5202,2.5215,2.5114,2.5217,2.5216,2.5216,2.5216,2.5216,2.4265,2.4317,2.4394,2.4473,2.4529,2.4591,2.4646,2.4698,2.4768,2.4858,2.4884,2.4969,2.5041,2.5155,2.5201,2.5267,2.5264,2.5284,2.5289,2.5293,2.5294,2.519,2.5282,2.5282,2.5282,2.5282,2.5282,0,2.4343,2.4394,2.4466,2.4559,2.4621,2.4635,2.4709,2.476,2.4835,2.4901,2.4968,2.5062,2.5139,2.5204,2.5284,2.5325,2.5336,2.5344,2.5342,2.5352,2.5291,2.5272,2.5333,2.5333,2.5333,2.5333,2.5333,2.5333,2.4391,2.4481,2.4515,2.4631,2.4681,2.4767,2.4808,2.4864,2.4917,2.5021,2.5087,2.5129,2.5194,2.5279,2.535,2.5367,2.5395,2.5401,2.542,2.5362,2.5356,2.5351,2.5333,2.5407,2.5407,2.5476,2.5476,2.5477]}]]